GW4457 Weather Reports


Display with metric or nautical units.
time (UTC)temp
F
wind
direction
speed
MPH
gust
MPH
rain 1hr
in
rain 24hr
in
rain mn
in
humidity
%
barometer
mb
20260905205351 86 69 12.0 16.0 0.00 0.00 0.00 74 1017.6
20260905204850 86 87 12.0 16.0 0.00 0.00 0.00 74 1017.6
20260905204346 86 145 12.0 15.0 0.00 0.00 0.00 74 1017.6
20260905203844 86 117 10.0 13.0 0.00 0.00 0.00 75 1017.7
20260905203341 86 90 11.0 14.0 0.00 0.00 0.00 73 1017.4
20260905202836 86 104 12.0 14.0 0.00 0.00 0.00 73 1017.3
20260905202331 86 100 8.0 14.0 0.00 0.00 0.00 75 1017.4
20260905201827 86 165 10.0 15.0 0.00 0.00 0.00 73 1017.6
20260905201322 87 105 9.0 16.0 0.00 0.00 0.00 72 1017.6
20260905200822 87 127 12.0 15.0 0.00 0.00 0.00 73 1017.7
20260905200318 87 83 13.0 15.0 0.00 0.00 0.00 72 1017.8
20260905195816 87 66 10.0 16.0 0.00 0.00 0.00 71 1017.4
20260905195311 88 170 7.0 17.0 0.00 0.00 0.00 72 1017.4
20260905194807 88 92 10.0 17.0 0.00 0.00 0.00 72 1017.4
20260905194307 88 149 10.0 15.0 0.00 0.00 0.00 70 1017.3
20260905193806 87 2 7.0 14.0 0.00 0.00 0.00 73 1017.4
20260905193301 87 86 15.0 16.0 0.00 0.00 0.00 71 1017.5
20260905192756 88 96 10.0 19.0 0.00 0.00 0.00 72 1017.5
20260905192253 88 85 11.0 15.0 0.00 0.00 0.00 71 1017.4
20260905191751 88 143 8.0 17.0 0.00 0.00 0.00 71 1017.4
20260905191250 88 74 10.0 15.0 0.00 0.00 0.00 70 1017.3
20260905190749 88 51 11.0 19.0 0.00 0.00 0.00 71 1017.4
20260905190248 88 139 11.0 16.0 0.00 0.00 0.00 70 1017.4
20260905185748 88 120 11.0 17.0 0.00 0.00 0.00 70 1017.5
20260905185243 88 119 8.0 18.0 0.00 0.00 0.00 70 1017.6
20260905184742 89 92 13.0 17.0 0.00 0.00 0.00 67 1017.3
20260905184241 89 64 9.0 17.0 0.00 0.00 0.00 68 1017.5
20260905183735 89 98 9.0 17.0 0.00 0.00 0.00 70 1017.5
20260905183231 90 153 13.0 18.0 0.00 0.00 0.00 66 1017.6
20260905182730 89 120 12.0 17.0 0.00 0.00 0.00 70 1017.7
20260905182230 89 105 16.0 21.0 0.00 0.00 0.00 69 1017.6
20260905181725 90 84 9.0 17.0 0.00 0.00 0.00 70 1017.7
20260905181224 89 124 15.0 17.0 0.00 0.00 0.00 68 1017.7
20260905180719 89 116 13.0 16.0 0.00 0.00 0.00 67 1017.7
20260905180215 89 139 11.0 15.0 0.00 0.00 0.00 69 1017.8
20260905175714 90 118 14.0 18.0 0.00 0.00 0.00 66 1017.8
20260905175209 91 154 16.0 22.0 0.00 0.00 0.00 62 1017.7
20260905174704 91 132 11.0 16.0 0.00 0.00 0.00 67 1017.9
20260905174200 90 154 9.0 16.0 0.00 0.00 0.00 66 1017.9
20260905173656 90 106 12.0 16.0 0.00 0.00 0.00 63 1017.9
20260905173152 91 94 13.0 18.0 0.00 0.00 0.00 62 1018.2
20260905172651 91 144 11.0 18.0 0.00 0.00 0.00 62 1018.1
20260905172145 91 70 13.0 19.0 0.00 0.00 0.00 60 1018.3
20260905171641 90 162 10.0 17.0 0.00 0.00 0.00 65 1018.3
20260905171137 88 142 7.0 16.0 0.00 0.00 0.00 69 1018.3
20260905170634 88 113 13.0 17.0 0.00 0.00 0.00 67 1018.5
20260905170129 90 122 10.0 15.0 0.00 0.00 0.00 66 1018.5
20260905165629 89 148 15.0 18.0 0.00 0.00 0.00 66 1018.5
20260905165124 89 101 15.0 18.0 0.00 0.00 0.00 67 1018.6
20260905164619 89 99 8.0 21.0 0.00 0.00 0.00 65 1018.6
20260905164118 88 132 11.0 18.0 0.00 0.00 0.00 68 1019.0
20260905163615 88 101 12.0 17.0 0.00 0.00 0.00 68 1019.1
20260905163111 88 63 9.0 19.0 0.00 0.00 0.00 68 1019.1
20260905162607 87 89 11.0 19.0 0.00 0.00 0.00 70 1019.2
20260905162106 87 65 12.0 18.0 0.00 0.00 0.00 70 1019.2
20260905161606 87 100 15.0 18.0 0.00 0.00 0.00 70 1019.1
20260905161104 87 119 12.0 15.0 0.00 0.00 0.00 69 1019.3
20260905160602 88 112 13.0 19.0 0.00 0.00 0.00 67 1019.4
20260905155557 88 115 12.0 19.0 0.00 0.00 0.00 69 1019.4
20260905155056 89 111 13.0 18.0 0.00 0.00 0.00 68 1019.4
20260905154551 89 99 14.0 18.0 0.00 0.00 0.00 68 1019.7
20260905154046 89 113 15.0 21.0 0.00 0.00 0.00 67 1019.7
20260905153542 90 154 12.0 19.0 0.00 0.00 0.00 66 1019.8
20260905153042 91 108 11.0 16.0 0.00 0.00 0.00 65 1019.8
20260905152537 90 200 10.0 17.0 0.00 0.00 0.00 67 1019.6
20260905152032 89 84 12.0 21.0 0.00 0.00 0.00 67 1019.9
20260905151527 89 128 13.0 19.0 0.00 0.00 0.00 65 1019.9
20260905151022 89 116 15.0 18.0 0.00 0.00 0.00 65 1020.1
20260905150518 89 122 13.0 19.0 0.00 0.00 0.00 68 1020.0
20260905150015 89 117 14.0 17.0 0.00 0.00 0.00 66 1020.0
20260905145509 90 83 13.0 19.0 0.00 0.00 0.00 65 1019.9
20260905145008 90 88 17.0 18.0 0.00 0.00 0.00 65 1019.7
20260905144504 89 97 11.0 21.0 0.00 0.00 0.00 67 1019.8
20260905144003 89 113 17.0 22.0 0.00 0.00 0.00 65 1019.8
20260905143501 89 100 10.0 22.0 0.00 0.00 0.00 65 1019.9
20260905142956 89 82 15.0 19.0 0.00 0.00 0.00 64 1019.8
20260905142455 89 126 17.0 24.0 0.00 0.00 0.00 64 1019.8
20260905141951 89 93 11.0 19.0 0.00 0.00 0.00 64 1020.0
20260905141445 89 207 9.0 18.0 0.00 0.00 0.00 66 1019.6
20260905140942 89 101 15.0 21.0 0.00 0.00 0.00 64 1019.9
20260905140437 89 83 11.0 18.0 0.00 0.00 0.00 65 1019.8
20260905135936 90 125 13.0 19.0 0.00 0.00 0.00 63 1019.9
20260905135431 91 86 13.0 24.0 0.00 0.00 0.00 62 1019.7
20260905134927 90 95 13.0 16.0 0.00 0.00 0.00 62 1019.9
20260905134426 90 89 14.0 16.0 0.00 0.00 0.00 60 1019.9
20260905133920 90 97 9.0 15.0 0.00 0.00 0.00 65 1019.7
20260905133420 89 145 12.0 15.0 0.00 0.00 0.00 63 1019.8
20260905132920 90 89 11.0 14.0 0.00 0.00 0.00 65 1019.7
20260905132415 89 97 9.0 16.0 0.00 0.00 0.00 64 1019.6
20260905131910 89 137 13.0 17.0 0.00 0.00 0.00 66 1019.7
20260905131406 89 91 15.0 17.0 0.00 0.00 0.00 65 1019.7
20260905130901 89 143 11.0 14.0 0.00 0.00 0.00 66 1019.8
20260905130400 89 92 11.0 15.0 0.00 0.00 0.00 64 1019.5
20260905125854 89 112 6.0 9.0 0.00 0.00 0.00 67 1019.4
20260905125349 88 82 13.0 15.0 0.00 0.00 0.00 67 1019.5
20260905124845 88 144 11.0 14.0 0.00 0.00 0.00 67 1019.6
20260905124342 87 92 13.0 16.0 0.00 0.00 0.00 67 1019.5
20260905123841 87 106 11.0 15.0 0.00 0.00 0.00 69 1019.6
20260905123338 87 98 10.0 14.0 0.00 0.00 0.00 69 1019.7
20260905122838 87 121 8.0 14.0 0.00 0.00 0.00 69 1019.8
20260905122337 87 104 11.0 14.0 0.00 0.00 0.00 68 1019.7
20260905121833 87 101 11.0 14.0 0.00 0.00 0.00 68 1019.8
20260905121330 86 134 8.0 10.0 0.00 0.00 0.00 69 1019.8
20260905120828 85 81 10.0 15.0 0.00 0.00 0.00 72 1019.8
20260905120323 85 79 10.0 14.0 0.00 0.00 0.00 72 1019.5
20260905115818 85 69 8.0 13.0 0.00 0.00 0.00 72 1019.5
20260905115317 84 76 9.0 13.0 0.00 0.00 0.00 72 1019.5
20260905114817 84 4 6.0 10.0 0.00 0.00 0.00 73 1019.3
20260905114316 84 143 5.0 9.0 0.00 0.00 0.00 75 1019.3
20260905113816 84 78 5.0 9.0 0.00 0.00 0.00 76 1019.1
20260905113311 83 79 3.0 8.0 0.00 0.00 0.00 77 1019.1
20260905112807 82 18 5.0 11.0 0.00 0.00 0.00 78 1019.2
20260905112301 82 90 4.0 9.0 0.00 0.00 0.00 79 1019.2
20260905111756 82 86 6.0 9.0 0.00 0.00 0.00 80 1019.0
20260905111250 82 127 5.0 11.0 0.00 0.00 0.00 81 1018.9
20260905110750 82 87 8.0 16.0 0.00 0.00 0.00 80 1018.9
20260905110244 81 95 6.0 11.0 0.00 0.00 0.00 81 1018.9
20260905105740 81 80 7.0 9.0 0.00 0.00 0.00 81 1018.8
20260905105239 80 70 7.0 17.0 0.00 0.00 0.00 81 1018.9
20260905104733 80 69 4.0 11.0 0.00 0.00 0.00 81 1018.7
20260905104230 80 85 4.0 10.0 0.00 0.00 0.00 81 1018.6
20260905103724 80 73 6.0 13.0 0.00 0.00 0.00 81 1018.6
20260905103220 80 118 6.0 14.0 0.00 0.00 0.00 81 1018.8
20260905102716 79 100 10.0 11.0 0.00 0.00 0.00 81 1018.6
20260905102212 79 78 6.0 11.0 0.00 0.00 0.00 81 1018.5
20260905101711 79 91 8.0 13.0 0.00 0.00 0.00 81 1018.4
20260905101209 79 89 7.0 10.0 0.00 0.00 0.00 82 1018.5
20260905100705 79 95 8.0 11.0 0.00 0.00 0.00 82 1018.2
20260905100201 80 63 6.0 9.0 0.00 0.00 0.00 82 1018.4
20260905095700 79 60 7.0 13.0 0.00 0.00 0.00 82 1018.3
20260905095154 79 121 4.0 15.0 0.00 0.00 0.00 83 1018.5
20260905094650 79 111 8.0 13.0 0.00 0.00 0.00 82 1018.2
20260905094149 79 85 12.0 14.0 0.00 0.00 0.00 82 1018.2
20260905093644 79 96 10.0 13.0 0.00 0.00 0.00 82 1018.1
20260905093140 79 67 8.0 13.0 0.00 0.00 0.00 83 1018.1
20260905092640 79 90 9.0 13.0 0.00 0.00 0.00 83 1017.9
20260905092136 79 98 9.0 13.0 0.00 0.00 0.00 84 1018.1
20260905091635 79 82 8.0 14.0 0.00 0.00 0.00 84 1018.1
20260905091135 79 71 8.0 14.0 0.00 0.00 0.00 84 1018.1
20260905090630 79 220 6.0 9.0 0.00 0.00 0.00 84 1018.2
20260905090125 79 64 5.0 10.0 0.00 0.00 0.00 83 1018.3
20260905085624 79 94 8.0 11.0 0.00 0.00 0.00 83 1018.3
20260905085120 79 51 10.0 13.0 0.00 0.00 0.00 83 1018.1
20260905084619 79 92 7.0 10.0 0.00 0.00 0.00 83 1017.8
20260905084115 79 87 9.0 10.0 0.00 0.00 0.00 84 1017.7
20260905083614 79 102 10.0 11.0 0.00 0.00 0.00 84 1017.9
20260905083111 79 71 6.0 9.0 0.00 0.00 0.00 85 1018.2
20260905082606 78 89 5.0 9.0 0.00 0.00 0.00 86 1018.1
20260905082102 78 79 5.0 9.0 0.00 0.00 0.00 87 1018.3
20260905081601 78 60 5.0 9.0 0.00 0.00 0.00 87 1018.1
20260905081057 78 76 7.0 9.0 0.00 0.00 0.00 88 1018.4
20260905080556 78 73 6.0 10.0 0.00 0.00 0.00 88 1018.2
20260905080052 78 82 7.0 10.0 0.00 0.00 0.00 88 1017.9
20260905075551 78 75 6.0 10.0 0.00 0.00 0.00 88 1018.3
20260905075050 78 81 4.0 9.0 0.00 0.00 0.00 88 1018.2
20260905074549 79 78 6.0 7.0 0.00 0.00 0.00 88 1018.2
20260905074046 79 90 7.0 9.0 0.00 0.00 0.00 88 1018.2
20260905073541 79 75 7.0 10.0 0.00 0.00 0.00 88 1018.2
20260905073037 79 54 4.0 9.0 0.00 0.00 0.00 88 1018.5
20260905072536 79 90 4.0 8.0 0.00 0.00 0.00 88 1018.1
20260905072031 79 96 8.0 10.0 0.00 0.00 0.00 88 1018.3
20260905071528 79 85 6.0 7.0 0.00 0.00 0.00 88 1018.4
20260905071028 79 77 5.0 6.0 0.00 0.00 0.00 88 1018.4
20260905070523 79 93 7.0 9.0 0.00 0.00 0.00 88 1018.2
20260905070019 79 86 6.0 8.0 0.00 0.00 0.00 88 1018.4
20260905065517 79 114 2.0 8.0 0.00 0.00 0.00 88 1018.4
20260905065012 79 116 7.0 8.0 0.00 0.00 0.00 88 1018.5
20260905064507 79 92 6.0 10.0 0.00 0.00 0.00 88 1018.6
20260905064003 79 55 6.0 8.0 0.00 0.00 0.00 88 1018.6
20260905063502 79 77 6.0 8.0 0.00 0.00 0.00 88 1018.7
20260905062959 79 57 4.0 9.0 0.00 0.00 0.00 88 1018.8
20260905062458 79 150 4.0 8.0 0.00 0.00 0.00 88 1019.0
20260905061953 79 105 6.0 9.0 0.00 0.00 0.00 88 1018.9
20260905061448 80 111 6.0 9.0 0.00 0.00 0.00 87 1018.8
20260905060947 80 119 4.0 11.0 0.00 0.00 0.00 87 1019.2
20260905060443 80 90 6.0 8.0 0.00 0.00 0.00 87 1019.2
20260905055943 80 142 3.0 8.0 0.00 0.00 0.00 87 1019.0
20260905055443 80 163 2.0 7.0 0.00 0.00 0.00 87 1019.1
20260905054942 80 127 6.0 8.0 0.00 0.00 0.00 87 1019.3
20260905054438 80 79 5.0 9.0 0.00 0.00 0.00 87 1019.3
20260905053939 80 77 4.0 8.0 0.00 0.00 0.00 87 1019.4
20260905053433 80 75 6.0 9.0 0.00 0.00 0.00 87 1019.3
20260905052929 80 80 4.0 6.0 0.00 0.00 0.00 87 1019.6
20260905052428 80 74 6.0 8.0 0.00 0.00 0.00 87 1019.4
20260905051928 80 85 4.0 6.0 0.00 0.00 0.00 86 1019.7
20260905051423 80 84 4.0 7.0 0.00 0.00 0.00 86 1019.5
20260905050921 80 90 5.0 7.0 0.00 0.00 0.00 86 1019.6
20260905050417 80 70 6.0 7.0 0.00 0.00 0.00 86 1019.7
20260905045912 80 15 3.0 8.0 0.00 0.00 0.00 85 1019.6
20260905045408 80 83 7.0 9.0 0.00 0.00 0.00 85 1019.6
20260905044903 80 78 5.0 9.0 0.00 0.00 0.00 84 1019.8
20260905044358 80 182 3.0 9.0 0.00 0.00 0.00 84 1019.9
20260905043856 80 94 3.0 8.0 0.00 0.00 0.00 83 1020.0
20260905043351 80 71 5.0 7.0 0.00 0.00 0.00 83 1019.7
20260905042846 80 70 2.0 7.0 0.00 0.00 0.00 83 1020.1
20260905042346 80 67 5.0 7.0 0.00 0.00 0.00 82 1019.8
20260905041841 80 60 7.0 8.0 0.00 0.00 0.00 83 1019.9
20260905041338 80 67 4.0 8.0 0.00 0.00 0.00 83 1019.9
20260905040837 80 79 3.0 8.0 0.00 0.00 0.00 83 1020.1
20260905040337 80 65 4.0 7.0 0.00 0.00 0.00 83 1020.2
20260905035836 80 48 3.0 4.0 0.00 0.00 0.00 84 1020.2
20260905035332 80 57 3.0 6.0 0.00 0.00 0.00 84 1020.1
20260905034828 80 52 4.0 6.0 0.00 0.00 0.00 85 1020.2
20260905034323 80 64 4.0 6.0 0.00 0.00 0.00 85 1020.2
20260905033822 80 32 2.0 6.0 0.00 0.00 0.00 86 1020.4
20260905033317 80 317 2.0 4.0 0.00 0.00 0.00 86 1020.2
20260905032817 80 83 3.0 4.0 0.00 0.00 0.00 85 1020.0
20260905032312 80 45 2.0 4.0 0.00 0.00 0.00 85 1020.2
20260905031808 80 63 2.0 3.0 0.00 0.00 0.00 85 1020.1
20260905031303 80 63 2.0 4.0 0.00 0.00 0.00 85 1020.0
20260905030759 80 48 2.0 3.0 0.00 0.00 0.00 85 1020.2
20260905030254 80 47 2.0 4.0 0.00 0.00 0.00 85 1020.1
20260905025753 80 18 3.0 4.0 0.00 0.00 0.00 85 1020.0
20260905025249 80 58 2.0 3.0 0.00 0.00 0.00 85 1020.2
20260905024745 80 116 4.0 6.0 0.00 0.00 0.00 85 1020.1
20260905024241 80 14 4.0 6.0 0.00 0.00 0.00 85 1020.4
20260905023741 80 304 3.0 6.0 0.00 0.00 0.00 85 1020.4
20260905023236 80 17 1.0 4.0 0.00 0.00 0.00 85 1020.4
20260905022735 80 106 2.0 6.0 0.00 0.00 0.00 84 1020.4
20260905022231 80 290 2.0 3.0 0.00 0.00 0.00 84 1020.5
20260905021730 80 86 3.0 4.0 0.00 0.00 0.00 84 1020.3
20260905021225 80 86 4.0 4.0 0.00 0.00 0.00 83 1020.3
20260905020720 80 74 4.0 6.0 0.00 0.00 0.00 83 1020.4
20260905020216 80 208 3.0 6.0 0.00 0.00 0.00 83 1020.5
20260905015714 80 85 2.0 6.0 0.00 0.00 0.00 84 1020.6
20260905015215 80 74 2.0 4.0 0.00 0.00 0.00 84 1020.6
20260905014713 80 73 2.0 4.0 0.00 0.00 0.00 83 1020.7
20260905014209 80 86 2.0 3.0 0.00 0.00 0.00 83 1020.5
20260905013705 80 31 2.0 3.0 0.00 0.00 0.00 83 1020.7
20260905013200 80 28 2.0 3.0 0.00 0.00 0.00 83 1020.4
20260905012656 80 20 1.0 2.0 0.00 0.00 0.00 84 1020.5
20260905012152 80 18 1.0 2.0 0.00 0.00 0.00 84 1020.5
20260905011648 80 23 2.0 3.0 0.00 0.00 0.00 84 1020.6
20260905011144 80 317 1.0 2.0 0.00 0.00 0.00 84 1020.5
20260905010638 80 323 1.0 2.0 0.00 0.00 0.00 84 1020.3
20260905010134 80 292 1.0 1.0 0.00 0.00 0.00 84 1020.4
20260905005630 80 316 1.0 2.0 0.00 0.00 0.00 84 1020.4
20260905005125 80 315 2.0 2.0 0.00 0.00 0.00 84 1020.0
20260905004625 80 305 2.0 2.0 0.00 0.00 0.00 84 1020.3
20260905004120 80 328 1.0 2.0 0.00 0.00 0.00 84 1020.1
20260905003616 80 291 0.0 2.0 0.00 0.00 0.00 84 1020.2
20260905003112 80 349 2.0 3.0 0.00 0.00 0.00 85 1020.1
20260905002607 80 318 2.0 2.0 0.00 0.00 0.00 85 1020.1
20260905002102 80 340 2.0 3.0 0.00 0.00 0.00 85 1020.1
20260905001557 80 306 2.0 2.0 0.00 0.00 0.00 85 1020.0
20260905001056 80 276 1.0 3.0 0.00 0.00 0.00 85 1020.2
20260905000551 80 278 0.0 0.0 0.00 0.00 0.00 85 1019.9
20260905000048 80 254 0.0 0.0 0.00 0.00 0.00 85 1020.0
20260904235542 80 201 0.0 0.0 0.00 0.00 0.00 85 1019.8
20260904235042 80 282 0.0 0.0 0.00 0.00 0.00 85 1019.7
20260904234542 80 269 0.0 0.0 0.00 0.00 0.00 85 1019.8
20260904234038 80 254 0.0 0.0 0.00 0.00 0.00 85 1019.6
20260904233533 80 305 0.0 1.0 0.00 0.00 0.00 85 1019.7
20260904233029 80 239 0.0 0.0 0.00 0.00 0.00 85 1019.7
20260904232525 80 234 0.0 0.0 0.00 0.00 0.00 85 1019.6
20260904232022 80 185 1.0 1.0 0.00 0.00 0.00 84 1019.5
20260904231518 80 225 0.0 1.0 0.00 0.00 0.00 84 1019.8
20260904231012 80 173 1.0 2.0 0.00 0.00 0.00 84 1019.6
20260904230511 80 129 2.0 3.0 0.00 0.00 0.00 83 1019.7
20260904230007 80 122 1.0 3.0 0.00 0.00 0.00 83 1019.6
20260904225504 80 99 3.0 4.0 0.00 0.00 0.00 82 1019.5
20260904225004 80 78 2.0 2.0 0.00 0.00 0.00 81 1019.3
20260904224459 80 88 0.0 0.0 0.00 0.00 0.00 80 1019.5
20260904223959 81 249 0.0 0.0 0.00 0.00 0.00 80 1019.5
20260904223458 81 217 0.0 0.0 0.00 0.00 0.00 80 1019.3
20260904222954 82 217 0.0 2.0 0.00 0.00 0.00 79 1019.5
20260904222449 82 155 2.0 3.0 0.00 0.00 0.00 78 1019.4
20260904221944 82 182 2.0 2.0 0.00 0.00 0.00 77 1019.5
20260904221438 82 92 2.0 2.0 0.00 0.00 0.00 77 1019.4
20260904220934 83 84 4.0 6.0 0.00 0.00 0.00 77 1019.4
20260904220433 83 96 3.0 6.0 0.00 0.00 0.00 76 1019.5
20260904215929 83 167 2.0 6.0 0.00 0.00 0.00 76 1019.4
20260904215424 83 90 3.0 4.0 0.00 0.00 0.00 76 1019.4
20260904214920 83 116 4.0 8.0 0.00 0.00 0.00 75 1019.5
20260904214415 83 81 6.0 9.0 0.00 0.00 0.00 75 1019.5
20260904213915 83 85 5.0 6.0 0.00 0.00 0.00 75 1019.3
20260904213409 83 125 4.0 9.0 0.00 0.00 0.00 74 1019.4
20260904212905 84 227 4.0 8.0 0.00 0.00 0.00 74 1019.5
20260904212404 84 109 8.0 10.0 0.00 0.00 0.00 73 1019.3
20260904211900 84 198 4.0 8.0 0.00 0.00 0.00 73 1019.2
20260904211355 84 89 6.0 8.0 0.00 0.00 0.00 71 1019.2
20260904210849 84 99 8.0 9.0 0.00 0.00 0.00 71 1019.3
20260904210349 84 93 6.0 10.0 0.00 0.00 0.00 72 1019.1
20260904205845 84 112 8.0 11.0 0.00 0.00 0.00 71 1019.3